Other Public Products
Issued by NWS Grand Forks, ND

Home | Current Version | Previous Version | Text Only | Print | Product List | Glossary On
Versions: 1 2 3 4 5 6 7 8 9 10 11 12 13 14 15 16 17 18 19 20 21 22 23 24 25 26 27 28 29 30 31 32 33 34 35 36 37 38 39 40 41 42 43 44 45 46 47 48 49 50
000
FPUS83 KFGF 241910
OPUFGF
PRAIRIE TO PINES WEATHER ROUNDUP
NATIONAL WEATHER SERVICE EASTERN NORTH DAKOTA/GRAND FORKS ND
200 PM CDT FRI OCT 24 2014

 **SATELLITE DATA USED TO AUGMENT SKY COVER AT AUTOMATED STATIONS**
 *****  WEATHER ACROSS EASTERN NORTH DAKOTA  *****

CITY           SKY/WX    TMP DP  RH WIND       PRES   REMARKS
GRAND FORKS    MOSUNNY   73  42  32 W17G26    29.73F
GRAND FORKS AF SUNNY     72  42  33 W15G26    29.74F
GRAND CITY NWS   N/A     73 N/A N/A W14         N/A
BUXTON         NOT AVBL
DEVILS LAKE    SUNNY     68  41  37 W25G31    29.77S
FARGO          SUNNY     71  43  36 SW12      29.79F
WAHPETON ARPT  CLEAR     70  36  28 W12       29.82F
$$

 *****  WEATHER ACROSS CENTRAL AND WESTERN NORTH DAKOTA  *****

CITY           SKY/WX    TMP DP  RH WIND       PRES   REMARKS
JAMESTOWN      SUNNY     71  41  33 W17       29.82F
BISMARCK       SUNNY     72  39  30 NW17G23   29.90F
MINOT          SUNNY     66  29  24 W24G32    29.83F
MINOT AFB      SUNNY     65  32  29 W26G33    29.81F
GARRISON         N/A     65  31  28 W26G37    29.87F
WILLISTON      PTSUNNY   62  29  28 W29G37    29.92R
DICKINSON      PTSUNNY   64  34  32 NW18G24   29.95F
HETTINGER      CLOUDY    65  33  30 NW18      29.99F
$$

 *****  OTHER OBSERVATIONS NORTHEAST NORTH DAKOTA  *****

CITY           SKY/WX    TMP DP  RH WIND       PRES   REMARKS
WALHALLA         N/A     72  37  28 W17G30    29.67F
LANGDON        FAIR      70  37  30 W26G33    29.71F
CAVALIER       FAIR      72  39  30 W20G25    29.69F
GRAFTON        FAIR      68  45  42 W20       29.71S
CANDO          FAIR      66  36  32 W24G35    29.76F
FORT TOTTEN    NOT AVBL
ROLLA          FAIR      64  32  29 W25G36    29.75F
RUGBY          FAIR      64  36  34 W28       29.80F
 ***** THE ABOVE OBSERVATIONS ARE NON NWS ARE NOT QUALITY
        CONTROLLED AND MAY MIS-REPORT RAIN FOR SNOW...
$$

 *****  OTHER OBSERVATIONS SOUTHEAST NORTH DAKOTA *****

CITY           SKY/WX    TMP DP  RH WIND       PRES   REMARKS
COOPERSTOWN    NOT AVBL
VALLEY CITY    FAIR      72  41  33 W16G22    29.81F
OAKES            N/A     73  43  33 W7        29.84F
GWINNER        CLEAR     73  45  35 W10G18    29.84F
BUFFALO        NOT AVBL
WYNDMERE         N/A     72  45  37 W9          N/A
 ***** THE ABOVE OBSERVATIONS ARE NON NWS ARE NOT QUALITY
       CONTROLLED AND MAY MIS-REPORT RAIN FOR SNOW...
$$

  *****  WEATHER ACROSS NORTHERN MINNESOTA  *****

CITY           SKY/WX    TMP DP  RH WIND       PRES   REMARKS
FLAG ISLAND    CLOUDY    57  43  58 SW10      29.64F
WARROAD        CLOUDY    64  48  55 SW13G18   29.67F
ROSEAU         CLOUDY    66  46  48 SW15      29.68F
HALLOCK        MOSUNNY   73  39  29 W23G30    29.67F
THF RVR FALLS  MOSUNNY   68  43  40 SW14      29.74F
HALSTAD          N/A     71  41  33 SW10        N/A
FOSSTON        SUNNY     70  39  32 SW15      29.78R
BAUDETTE       CLOUDY    67  42  40 SW10      29.67F
WASKISH        MOSUNNY   64  43  45 SW7G16    29.72F
CROOKSTON      MOSUNNY   73  45  35 W15       29.74F
$$
  *****  WEATHER ACROSS CENTRAL AND WEST MINNESOTA  *****

CITY           SKY/WX    TMP DP  RH WIND       PRES   REMARKS
BEMIDJI        SUNNY     72  37  28 SW15G21   29.76S
PARK RAPIDS    MOSUNNY   69  40  34 W10       29.79F
WADENA         MOSUNNY   68  46  45 SW6       29.80F
DETROIT LAKES  MOSUNNY   68  37  32 W10       29.82S
MOORHEAD       SUNNY     70  36  28 SW8       29.80F
FERGUS FALLS   SUNNY     70  36  28 W10       29.83S
ELBOW LAKE     FAIR      68  46  44 W8        29.83F
MORRIS MN      SUNNY     73  45  35 W8        29.83S
STAPLES        MOSUNNY   70  39  32 W9        29.80F
WHEATON        SUNNY     72  43  35 W7        29.84F
$$
  *****  WEATHER ELSEWHERE ACROSS MINNESOTA  *****

CITY           SKY/WX    TMP DP  RH WIND       PRES   REMARKS
DULUTH         MOSUNNY   68  51  54 SW13      29.77F
INTRNTL FALLS  CLOUDY    68  40  35 W10G20    29.69F
ELY            MOSUNNY   66  45  45 SW10G16   29.74F
CLOQUET        SUNNY     66  50  55 SW10      29.78F
BRAINERD       SUNNY     64  46  52 SW10      29.81F
HIBBING        MOSUNNY   69  44  40 SW6       29.75F
ALEXANDRIA     MOSUNNY   68  42  38 W9        29.84F
SAINT CLOUD    MOSUNNY   68  50  52 SW9       29.82F
MINNEAPOLIS    CLOUDY    63  53  70 S6        29.83F
$$

  *****  WEATHER ACROSS SOUTH DAKOTA  *****

CITY           SKY/WX    TMP DP  RH WIND       PRES   REMARKS
SIOUX FALLS    PTSUNNY   74  43  32 NW8       29.88F
BROOKINGS      NOT AVBL
WATERTOWN      PTSUNNY   71  39  31 W8        29.88S
HURON          MOSUNNY   76  36  23 VRB5      29.88F
SISSETON         N/A     76  37  24 NW12G23   29.83F
ABERDEEN       PTSUNNY   74  40  29 W3        29.87F
MITCHELL       MOSUNNY   72  37  28 W5        29.91F
PIERRE         SUNNY     74  38  27 W9        29.92F
MOBRIDGE       SUNNY     73  38  27 NW8       29.89F
RAPID CITY     MOSUNNY   71  36  27 N18       30.01S
$$

  *****  SOME WEATHER IN NEARBY STATES *****

CITY           SKY/WX    TMP DP  RH WIND       PRES   REMARKS
GLASGOW MT     MOSUNNY   58  29  33 W23G30    29.97S
GREAT FALLS MT PTSUNNY   56  33  42 SW18      30.04S
CHEYENNE WY    PTSUNNY   73  23  15 W15       30.19F
SCOTTSBLUFF NE MOSUNNY   79  32  18 W23       30.05F
OMAHA NE       CLOUDY    72  59  63 SW6       29.91F
DES MOINES IA  CLOUDY    64  60  87 S9        29.91F FOG
DAVENPORT IA   SUNNY     67  50  54 S13       29.99F
CHICAGO IL     MOSUNNY   64  48  56 VRB5      29.99F
EAU CLAIRE WI  CLOUDY    60  49  66 S10       29.86F
LA CROSSE WI   CLOUDY    63  52  67 S10       29.88F
$$

  *****  SOME NATIONAL WEATHER *****

CITY           SKY/WX    TMP DP  RH WIND       PRES   REMARKS
LA GUARDIA NY  CLOUDY    60  44  55 NW15G21   29.76F
RALEIGH NC     PTSUNNY   68  44  42 SW6       29.98F
ATLANTA GA     MOSUNNY   71  45  39 CALM      30.02F
NEW ORLEANS LA MOSUNNY   74  44  34 N8        30.06F
OKLAHOMA CITY  MOSUNNY   82  62  50 S13       30.07F
ALBUQUERQUE NM SUNNY     72  33  24 CALM      30.32F
SALT LAKE CITY SUNNY     76  31  19 S12G18    30.15F
LOS ANGELES CA SUNNY     77  59  53 W7        29.99S
BOISE ID       MOSUNNY   58  49  72 CALM      30.08F
SEATTLE WA     CLOUDY    57  47  69 CALM      30.03F
$$

*** WEATHER ACROSS MANITOBA...SASKATCHEWAN AND ONTARIO ***
                ***ONTARIO***

CITY           SKY/WX    TMP DP  RH WIND       PRES   REMARKS
GERALDTON      CLOUDY    48  46  93 SW16      29.73F FOG
THUNDER BAY    PTSUNNY   63  48  59 S7        29.73F
SIOUX LOOKOUT  PTSUNNY   61  46  59 SW7       29.62F
TORONTO        PTSUNNY   57  37  47 NW9       29.95F
BIG TROUT LK   MOSUNNY   54  45  71 SE6       29.50F
PICKLE LAKE    MOSUNNY   61  43  51 S12G17    29.58F
DRYDEN         PTSUNNY   61  43  51 S12       29.63F
KENORA         PTSUNNY   55  43  62 S14       29.63F
$$
                *** MANITOBA***

CITY           SKY/WX    TMP DP  RH WIND       PRES   REMARKS
BRANDON        PTSUNNY   64  37  36 W30G43    29.68R
DAUPHIN        SUNNY     61  37  41 W33G47    29.59R
ISLAND LAKE    NOT AVBL
PILOT MOUND      N/A     64  34  32 W17G31      N/A
THE PAS        PTSUNNY   45  43  93 W12       29.49F
THOMPSON       CLOUDY    43  41  93 SW2       29.38F FOG
WINNIPEG       MOSUNNY   66  43  42 W23G31    29.62F
LYNN LAKE      CLOUDY    43  41  93 SW8       29.33F
CHURCHILL      LGT RAIN  37  37 100 E16       29.45F FOG
GILLAM         CLOUDY    43  41  93 VRB2      29.42F
$$
                ***SASKATCHEWAN***

CITY           SKY/WX    TMP DP  RH WIND       PRES   REMARKS
ESTEVAN        PTSUNNY   59  34  38 W24G37    29.84S
KINDERSLEY     MOSUNNY   50  30  46 W17G23    29.87R
LLOYDMINSTER   NOT AVBL
PRINCE ALBERT  CLOUDY    45  34  65 W23G31    29.67R
REGINA         MOSUNNY   54  34  47 W25G32    29.83R
YORKTON        SUNNY     57  30  35 W25G43    29.66S



USA.gov is the U.S. government's official web portal to all federal, state and local government web resources and services.